Temp
-12 -12 -12 -12 -12 -12 -11 -11 -11 -11 -11 -11 -11 -11 -11 -10 -11 -11 -11 -11 -11 -11 -11 -11 -12 -12 -12 -12 -12 -12 -12 -12 -13 -12 -12 -12 -12 -13 -13 -13 -14 -14 -15 -15
-13 -12 -12 -12 -12 -12 -11 -11 -11 -11 -11 -11 -11 -11 -11 -11 -11 -11 -11 -11 -11 -11 -11 -12 -12 -12 -12 -12 -12 -12 -12 -12 -12 -12 -13 -13 -13 -13 -14 -14 -14 -15 -15 -16
-13 -13 -12 -12 -12 -12 -12 -12 -11 -11 -11 -11 -11 -11 -11 -11 -11 -11 -11 -11 -11 -12 -12 -12 -12 -12 -12 -12 -13 -13 -12 -12 -13 -13 -13 -13 -14 -14 -15 -15 -15 -15 -16 -16
-13 -13 -13 -13 -13 -12 -12 -12 -12 -12 -11 -11 -11 -10 -11 -11 -11 -11 -11 -12 -12 -12 -12 -12 -12 -12 -12 -13 -12 -12 -13 -13 -13 -13 -13 -14 -14 -14 -15 -15 -16 -16 -16 -16
-13 -13 -13 -13 -13 -12 -12 -12 -12 -12 -12 -12 -11 -11 -11 -11 -11 -11 -11 -12 -12 -12 -12 -13 -13 -13 -13 -13 -13 -13 -13 -13 -13 -13 -13 -14 -14 -15 -15 -16 -16 -16 -17 -17
-13 -13 -13 -13 -13 -13 -13 -13 -12 -12 -12 -12 -12 -12 -12 -12 -12 -12 -12 -12 -13 -13 -13 -13 -13 -13 -13 -13 -13 -13 -13 -13 -13 -13 -14 -14 -14 -15 -16 -16 -16 -17 -17 -17
-13 -13 -13 -13 -13 -13 -13 -13 -12 -12 -12 -12 -12 -12 -12 -12 -13 -13 -13 -13 -13 -13 -13 -14 -14 -14 -13 -13 -13 -13 -14 -14 -14 -14 -14 -15 -15 -16 -16 -17 -17 -17 -17 -17
-13 -13 -13 -13 -13 -13 -13 -13 -13 -13 -12 -12 -13 -12 -13 -13 -13 -13 -13 -13 -13 -13 -13 -13 -14 -13 -14 -14 -14 -14 -14 -14 -15 -15 -15 -16 -16 -16 -17 -17 -17 -17 -17 -18
-13 -13 -13 -13 -13 -13 -13 -13 -13 -13 -13 -12 -12 -12 -13 -14 -14 -13 -13 -13 -13 -13 -14 -13 -14 -14 -14 -14 -15 -15 -15 -15 -16 -16 -17 -16 -16 -17 -17 -17 -18 -18 -18 -18
-14 -13 -13 -13 -13 -13 -13 -14 -14 -14 -14 -13 -13 -13 -13 -14 -14 -14 -14 -14 -14 -14 -14 -14 -14 -15 -15 -15 -16 -16 -16 -17 -17 -17 -17 -17 -17 -17 -18 -18 -18 -18 -18 -19
-14 -14 -13 -13 -14 -14 -14 -14 -14 -14 -15 -15 -14 -12 -14 -14 -14 -14 -14 -14 -14 -14 -15 -15 -15 -15 -16 -17 -17 -17 -17 -17 -18 -18 -18 -18 -18 -18 -18 -19 -19 -19 -19 -20
-14 -14 -14 -14 -14 -14 -14 -14 -14 -15 -15 -15 -15 -13 -14 -15 -15 -15 -14 -14 -15 -15 -15 -16 -16 -16 -17 -17 -17 -18 -18 -18 -19 -19 -19 -19 -19 -19 -20 -20 -20 -20 -21 -21
-14 -14 -14 -14 -14 -14 -15 -15 -15 -15 -15 -15 -15 -14 -15 -15 -15 -15 -15 -15 -15 -15 -16 -16 -17 -17 -17 -18 -19 -19 -19 -19 -19 -20 -19 -20 -20 -20 -21 -21 -22 -22 -22 -23
-14 -14 -15 -15 -15 -15 -15 -15 -15 -15 -16 -16 -15 -15 -16 -16 -16 -16 -16 -16 -17 -17 -17 -17 -18 -18 -18 -19 -19 -19 -19 -19 -20 -20 -20 -21 -22 -22 -23 -23 -24 -24 -24 -24
-15 -14 -15 -15 -15 -15 -15 -16 -16 -16 -16 -16 -16 -16 -16 -16 -17 -17 -18 -18 -18 -18 -18 -18 -19 -19 -20 -20 -20 -20 -20 -21 -21 -21 -23 -23 -24 -24 -25 -25 -25 -25 -26 -25
-15 -15 -15 -15 -16 -16 -15 -16 -17 -17 -16 -16 -16 -16 -17 -17 -17 -18 -18 -18 -18 -18 -19 -20 -20 -20 -21 -21 -22 -21 -22 -23 -24 -25 -25 -26 -26 -26 -26 -26 -26 -26 -26 -26
-15 -16 -16 -15 -16 -16 -15 -16 -17 -17 -18 -18 -18 -18 -18 -18 -19 -19 -19 -19 -20 -20 -20 -21 -21 -21 -22 -23 -24 -24 -25 -25 -26 -26 -26 -27 -27 -27 -27 -27 -27 -27 -26 -26
-16 -17 -17 -16 -17 -16 -17 -17 -18 -18 -18 -19 -19 -20 -19 -19 -20 -20 -20 -20 -21 -21 -21 -22 -23 -24 -25 -26 -26 -26 -26 -26 -26 -27 -27 -27 -28 -28 -27 -27 -27 -27 -28 -28
-17 -17 -18 -17 -18 -17 -18 -18 -18 -18 -18 -19 -20 -20 -20 -20 -20 -20 -21 -21 -22 -23 -23 -24 -25 -25 -26 -27 -27 -27 -27 -28 -28 -28 -28 -28 -28 -28 -28 -28 -29 -30 -30 -30
-18 -18 -18 -19 -19 -18 -19 -20 -20 -20 -19 -20 -20 -21 -20 -20 -22 -23 -24 -24 -25 -26 -26 -27 -27 -27 -28 -28 -28 -28 -28 -29 -29 -29 -29 -28 -29 -29 -30 -30 -31 -32 -32 -32
-19 -19 -19 -20 -20 -19 -20 -20 -20 -21 -22 -22 -23 -23 -25 -25 -25 -26 -26 -27 -27 -28 -28 -28 -28 -28 -28 -29 -29 -29 -29 -29 -29 -29 -30 -30 -31 -31 -32 -32 -33 -33 -33 -34
-19 -20 -20 -20 -21 -21 -22 -22 -23 -24 -24 -25 -26 -26 -26 -26 -27 -27 -28 -28 -28 -28 -28 -29 -29 -29 -29 -29 -30 -30 -30 -30 -31 -31 -32 -32 -32 -33 -33 -33 -33 -34 -34 -34
-20 -21 -21 -22 -22 -24 -25 -25 -26 -26 -26 -27 -27 -27 -27 -28 -28 -28 -28 -28 -29 -29 -29 -29 -29 -29 -30 -30 -30 -30 -31 -33 -33 -33 -33 -33 -33 -33 -33 -33 -33 -34 -34 -34
-21 -23 -23 -24 -25 -26 -27 -27 -27 -27 -27 -27 -28 -28 -29 -29 -29 -29 -29 -29 -30 -30 -30 -30 -30 -30 -31 -31 -32 -33 -33 -33 -33 -33 -33 -33 -33 -33 -33 -33 -33 -33 -34 -34
-25 -24 -26 -26 -27 -27 -27 -27 -28 -28 -29 -29 -29 -29 -30 -30 -30 -30 -30 -30 -30 -31 -31 -31 -32 -32 -33 -33 -34 -34 -34 -33 -33 -33 -33 -33 -33 -33 -33 -33 -33 -33 -34 -34
-25 -27 -27 -27 -27 -28 -28 -28 -29 -30 -30 -31 -31 -31 -31 -31 -31 -31 -31 -32 -32 -32 -33 -33 -33 -33 -33 -34 -34 -34 -33 -33 -33 -33 -32 -32 -32 -32 -33 -33 -33 -33 -33 -33
Height
5816 5814 5810 5808 5805 5801 5797 5793 5789 5785 5781 5779 5775 5776 5771 5771 5772 5769 5767 5767 5766 5764 5763 5762 5760 5758 5756 5754 5751 5748 5745 5742 5740 5737 5733 5729 5725 5722 5719 5716 5713 5710 5706 5701
5814 5811 5808 5804 5800 5796 5792 5788 5784 5780 5775 5771 5769 5768 5764 5762 5761 5762 5760 5758 5757 5756 5755 5753 5751 5749 5747 5744 5742 5739 5736 5734 5730 5727 5723 5720 5717 5713 5709 5704 5701 5697 5695 5692
5811 5808 5804 5800 5795 5792 5786 5781 5777 5773 5769 5765 5760 5760 5757 5754 5753 5751 5751 5750 5749 5747 5746 5744 5742 5741 5738 5735 5733 5730 5727 5724 5721 5717 5714 5711 5707 5702 5699 5695 5691 5685 5681 5678
5808 5804 5800 5796 5791 5787 5782 5777 5771 5766 5762 5758 5754 5752 5750 5747 5745 5744 5742 5741 5740 5739 5737 5735 5733 5732 5729 5726 5723 5721 5718 5714 5711 5707 5703 5700 5696 5690 5686 5682 5679 5676 5670 5664
5805 5800 5796 5791 5787 5781 5776 5770 5764 5759 5755 5752 5749 5746 5743 5741 5738 5737 5735 5733 5732 5730 5728 5726 5724 5722 5719 5716 5712 5709 5706 5703 5699 5695 5692 5688 5683 5678 5673 5668 5663 5662 5658 5652
5799 5795 5791 5787 5782 5776 5770 5764 5758 5753 5749 5748 5744 5741 5738 5735 5733 5730 5728 5725 5723 5721 5719 5716 5714 5711 5708 5705 5701 5697 5693 5689 5685 5681 5678 5674 5669 5664 5658 5653 5648 5644 5642 5639
5794 5791 5786 5782 5777 5771 5764 5757 5749 5745 5741 5740 5738 5736 5733 5730 5728 5725 5722 5719 5715 5712 5710 5707 5704 5701 5697 5692 5688 5684 5679 5674 5671 5667 5663 5659 5653 5647 5643 5638 5632 5628 5625 5622
5788 5786 5780 5775 5770 5764 5759 5753 5745 5735 5734 5733 5731 5728 5725 5723 5720 5717 5714 5710 5706 5703 5700 5697 5693 5688 5684 5680 5675 5671 5665 5660 5656 5651 5646 5641 5636 5631 5627 5622 5617 5612 5608 5604
5779 5778 5774 5768 5763 5757 5749 5746 5741 5731 5726 5722 5722 5723 5717 5714 5712 5709 5704 5699 5695 5691 5688 5684 5680 5676 5671 5666 5662 5657 5650 5645 5640 5635 5630 5624 5619 5615 5610 5605 5601 5596 5591 5589
5771 5766 5766 5761 5755 5750 5745 5738 5732 5726 5718 5710 5708 5709 5707 5705 5702 5697 5692 5687 5684 5681 5676 5671 5666 5662 5658 5653 5647 5641 5635 5630 5625 5618 5611 5606 5601 5597 5591 5587 5582 5578 5573 5569
5762 5759 5756 5751 5746 5739 5734 5729 5723 5719 5713 5704 5698 5693 5695 5693 5686 5683 5677 5673 5670 5668 5663 5658 5652 5647 5643 5637 5630 5624 5619 5612 5605 5599 5593 5587 5580 5575 5570 5566 5561 5557 5553 5551
5752 5745 5744 5742 5737 5731 5724 5719 5712 5707 5702 5694 5691 5681 5687 5680 5674 5668 5663 5659 5654 5651 5646 5642 5637 5632 5626 5619 5612 5607 5600 5593 5587 5580 5573 5566 5559 5554 5549 5544 5540 5536 5533 5529
5740 5733 5730 5726 5725 5715 5708 5705 5702 5698 5691 5688 5677 5679 5671 5668 5660 5655 5650 5645 5641 5635 5631 5625 5619 5612 5605 5598 5592 5585 5578 5572 5565 5558 5551 5543 5536 5531 5526 5521 5517 5513 5511 5510
5729 5724 5722 5715 5712 5704 5694 5691 5690 5683 5677 5673 5669 5664 5665 5654 5648 5643 5637 5632 5627 5620 5613 5606 5600 5593 5585 5578 5572 5566 5559 5553 5546 5537 5528 5521 5515 5510 5505 5500 5496 5493 5491 5489
5719 5711 5708 5703 5700 5692 5684 5681 5680 5672 5668 5658 5660 5650 5647 5638 5633 5628 5624 5617 5610 5603 5596 5589 5582 5575 5567 5561 5555 5548 5540 5531 5524 5517 5508 5500 5494 5490 5485 5480 5477 5473 5469 5466
5705 5696 5692 5684 5682 5676 5668 5669 5664 5658 5652 5646 5641 5637 5627 5621 5616 5611 5604 5597 5590 5584 5578 5572 5565 5557 5549 5541 5535 5528 5519 5509 5502 5495 5488 5482 5476 5471 5466 5460 5455 5450 5444 5440
5687 5682 5674 5664 5661 5655 5650 5647 5642 5637 5633 5626 5621 5618 5609 5603 5599 5592 5584 5578 5573 5565 5557 5550 5544 5536 5527 5518 5511 5505 5498 5490 5484 5478 5471 5463 5457 5452 5444 5438 5431 5423 5416 5411
5671 5667 5658 5651 5643 5639 5632 5629 5624 5620 5614 5605 5601 5595 5588 5583 5576 5568 5563 5556 5550 5543 5536 5528 5522 5514 5504 5496 5490 5485 5479 5473 5467 5459 5451 5443 5436 5429 5420 5411 5401 5393 5386 5380
5658 5650 5642 5634 5628 5626 5621 5616 5610 5602 5600 5591 5585 5578 5570 5564 5558 5549 5544 5537 5528 5521 5513 5507 5500 5493 5487 5478 5472 5467 5460 5452 5444 5436 5429 5420 5409 5400 5391 5383 5373 5364 5356 5351
5637 5630 5624 5617 5607 5603 5603 5596 5588 5582 5578 5572 5564 5557 5550 5543 5535 5527 5519 5513 5506 5499 5491 5486 5481 5475 5468 5460 5452 5445 5438 5429 5419 5412 5403 5393 5382 5372 5363 5355 5347 5340 5334 5329
5619 5611 5605 5598 5587 5584 5579 5572 5567 5560 5556 5545 5538 5533 5528 5521 5516 5509 5502 5495 5488 5482 5476 5469 5464 5459 5449 5440 5430 5423 5414 5404 5396 5387 5378 5368 5358 5348 5341 5334 5327 5322 5317 5312
5601 5591 5587 5579 5571 5566 5561 5553 5547 5539 5533 5527 5522 5516 5510 5504 5498 5492 5486 5479 5473 5466 5459 5452 5446 5441 5433 5422 5411 5404 5394 5383 5373 5364 5355 5347 5338 5329 5323 5317 5312 5307 5301 5296
5580 5575 5570 5563 5556 5549 5539 5535 5529 5522 5517 5513 5507 5501 5494 5488 5483 5478 5472 5464 5457 5450 5444 5436 5428 5423 5416 5403 5392 5383 5372 5363 5355 5347 5338 5330 5322 5315 5308 5303 5298 5293 5286 5281
5559 5551 5543 5539 5541 5528 5524 5517 5512 5508 5503 5497 5491 5484 5479 5473 5466 5463 5456 5450 5444 5437 5428 5420 5412 5403 5394 5383 5373 5363 5355 5346 5338 5330 5323 5315 5308 5302 5296 5290 5285 5279 5273 5267
5539 5530 5526 5523 5519 5514 5509 5502 5498 5491 5486 5482 5476 5470 5463 5458 5453 5447 5443 5436 5427 5419 5410 5401 5390 5382 5374 5366 5358 5347 5338 5329 5323 5316 5309 5302 5296 5290 5284 5278 5272 5266 5260 5254
5521 5517 5511 5507 5503 5498 5494 5489 5482 5477 5472 5466 5460 5456 5449 5441 5437 5432 5427 5417 5409 5401 5393 5385 5376 5366 5358 5350 5342 5332 5324 5316 5310 5303 5296 5289 5283 5277 5271 5265 5260 5252 5247 5242
Wind_Speed
18 21 22 22 23 24 25 26 26 27 29 29 31 28 32 29 23 27 30 30 31 32 33 33 34 34 35 35 34 33 35 37 38 39 41 44 46 47 48 48 47 47 47 44
20 21 24 25 27 28 28 27 27 27 28 29 28 27 32 32 31 28 30 31 32 33 34 35 35 35 36 35 35 36 37 38 40 42 43 45 47 49 49 49 48 48 48 47
19 22 24 27 30 31 34 34 32 29 26 26 27 25 27 29 30 31 31 31 31 32 34 35 36 36 36 36 37 37 39 41 44 44 47 49 48 50 50 50 50 50 50 48
20 23 26 28 32 35 36 36 35 32 30 26 26 22 20 23 24 27 28 28 31 32 34 36 35 36 36 36 39 40 42 46 46 48 52 53 52 53 50 50 51 52 50 50
24 26 27 30 34 37 39 40 37 34 29 27 25 23 21 18 20 24 26 29 30 32 34 35 33 33 36 39 41 43 45 46 49 52 54 54 56 56 55 53 52 54 54 51
26 28 30 33 36 38 41 43 40 33 28 26 22 19 17 16 17 19 23 27 29 30 32 34 34 35 38 40 43 44 48 51 54 55 56 58 59 58 57 56 53 53 55 57
30 30 33 34 36 39 43 46 46 39 30 26 24 21 20 15 16 19 22 27 31 34 34 35 37 38 41 43 46 48 52 56 58 58 61 62 61 62 62 59 58 55 56 58
33 34 36 37 40 43 45 46 48 46 38 31 27 27 27 23 24 22 27 31 34 37 38 39 42 44 45 47 50 54 58 60 61 63 65 65 65 65 65 63 60 58 59 60
39 38 40 41 42 44 47 47 49 49 42 38 33 30 33 29 27 28 33 37 39 40 42 44 46 47 48 52 55 59 61 64 65 66 67 68 68 67 67 64 63 61 61 62
44 45 41 42 43 46 46 50 53 49 46 44 40 35 36 31 34 37 38 40 43 43 46 49 52 53 53 57 60 63 65 66 67 69 69 69 70 70 69 67 64 64 63 62
46 46 46 46 45 47 49 53 55 51 46 44 45 45 38 38 40 41 45 48 48 48 52 55 54 55 57 62 65 66 67 68 69 70 70 71 71 72 70 69 68 66 65 64
50 52 48 45 46 50 56 55 55 51 50 48 45 49 38 41 42 46 48 51 53 56 57 54 57 62 66 68 69 68 68 69 70 71 72 73 74 73 73 72 71 69 67 66
49 51 51 52 53 59 59 57 52 46 46 41 47 45 48 48 52 53 53 56 58 58 58 61 66 68 70 69 69 69 69 71 73 74 76 77 77 77 76 74 72 71 70 68
49 51 52 56 59 59 62 58 51 47 47 47 46 46 43 51 57 57 57 56 58 61 65 67 70 71 71 72 73 74 76 77 76 77 79 80 80 79 77 75 74 71 68 67
54 59 58 60 59 61 62 57 48 49 46 52 51 59 54 56 56 56 59 62 64 65 68 69 69 70 70 71 73 74 75 76 77 78 80 80 79 77 77 76 73 72 71 71
59 64 64 69 66 63 63 55 55 55 56 55 55 55 57 60 63 64 66 68 69 69 67 66 67 68 69 71 72 74 75 77 79 79 77 78 79 77 75 75 76 76 77 79
64 65 69 75 71 70 68 63 59 59 56 57 60 61 65 67 65 64 66 67 66 66 66 66 68 70 71 72 74 76 77 78 79 79 78 76 75 75 77 79 81 83 84 84
67 66 70 73 72 72 67 64 63 66 65 64 63 64 67 66 65 65 67 67 67 69 69 69 70 72 74 75 77 77 77 78 77 76 76 77 78 80 83 86 86 85 83 80
66 66 68 68 64 66 68 67 65 67 68 65 65 66 66 67 69 69 68 68 71 72 73 72 72 72 72 73 74 76 76 75 76 77 78 82 86 88 87 85 80 74 72 68
67 62 60 66 70 73 70 66 65 66 70 67 66 66 68 69 69 69 71 72 71 70 69 69 71 71 71 74 76 76 74 76 80 84 86 88 86 83 78 73 68 63 58 55
64 67 70 71 73 74 66 67 67 68 64 67 69 68 66 67 68 69 68 66 64 65 68 68 70 73 73 75 75 77 80 85 87 85 82 77 73 70 66 61 54 49 49 50
71 68 66 67 66 66 64 64 66 68 67 68 67 66 66 65 63 61 61 63 66 67 67 70 74 74 72 74 80 84 85 83 76 74 71 68 63 57 52 48 46 46 46 44
67 64 62 63 64 63 65 66 67 67 65 62 65 66 65 59 56 59 64 65 64 67 71 74 73 72 77 83 83 78 70 66 67 67 63 55 50 48 46 46 44 44 46 43
65 64 67 66 60 62 59 59 62 64 67 66 63 59 53 54 62 62 63 61 64 66 67 73 78 79 74 67 61 60 62 65 63 56 49 47 46 44 43 42 43 44 41 45
58 63 61 61 61 64 66 67 65 60 57 53 50 50 51 53 54 56 56 61 68 71 72 69 63 60 56 56 59 61 60 55 49 46 45 44 42 41 42 43 43 45 42 41
58 58 60 61 61 62 62 59 56 54 52 50 52 52 51 56 59 62 62 62 64 60 54 53 54 57 57 55 53 52 49 48 46 44 42 41 42 43 44 44 45 41 39 35
Wind_Direction
350 348 346 340 333 326 319 316 312 303 297 292 286 285 279 280 274 272 272 270 270 271 274 280 280 282 282 286 288 291 290 292 298 300 301 305 305 306 307 307 305 306 304 299
346 348 347 344 341 338 329 319 312 305 298 294 288 284 279 280 279 274 272 273 271 273 276 276 278 279 283 284 287 289 290 294 294 295 298 302 305 306 304 303 303 304 303 298
340 341 342 343 341 338 333 327 317 308 297 297 298 288 283 276 273 274 273 274 273 271 274 275 277 281 283 285 288 288 292 293 295 298 299 302 303 305 305 304 303 303 301 297
332 333 336 338 339 338 331 325 322 310 302 298 301 300 286 276 272 269 269 268 269 271 272 275 279 282 284 286 289 290 292 295 297 298 300 303 302 302 302 301 300 300 299 297
326 329 331 334 334 334 334 331 325 318 306 304 302 301 293 283 270 267 267 268 269 271 275 278 281 281 283 285 289 291 293 294 295 296 298 299 298 300 301 301 299 300 299 295
321 323 324 327 330 332 334 333 328 321 309 308 307 306 307 298 283 275 273 273 274 274 274 276 278 281 283 287 290 291 291 292 292 295 297 297 298 299 301 300 298 298 297 295
317 318 320 322 325 330 332 333 332 326 316 307 305 302 306 303 289 284 280 279 278 278 279 281 282 285 287 288 289 291 292 293 295 296 297 299 299 300 300 299 299 298 296 295
314 317 320 320 322 324 327 332 334 327 320 305 300 297 295 296 295 292 282 282 284 286 285 286 288 287 286 289 292 295 295 295 296 296 298 298 299 299 298 298 297 296 294 293
312 315 317 318 318 319 324 327 329 325 316 310 300 295 293 303 302 293 284 283 285 286 287 288 289 288 288 290 294 294 293 295 296 296 296 296 297 298 298 296 295 294 292 291
311 312 316 316 316 316 317 322 325 323 317 310 306 301 297 303 300 296 291 285 286 287 288 291 291 290 291 293 293 293 293 294 294 294 295 296 297 298 297 296 294 292 290 289
308 310 311 313 313 313 315 316 317 317 312 306 302 298 303 306 298 296 292 291 291 293 293 292 289 288 291 293 293 293 294 294 294 295 295 296 296 296 296 294 292 291 289 288
306 304 309 311 313 313 313 313 311 311 311 302 300 292 303 297 295 289 289 291 292 293 293 292 290 292 294 294 294 294 294 294 295 295 296 296 295 296 294 293 292 290 288 287
306 307 310 310 314 316 313 312 309 308 303 304 289 297 296 297 292 291 292 292 294 293 291 291 292 293 292 292 293 294 295 296 297 298 297 296 295 294 292 291 289 287 285 285
302 303 305 307 308 307 306 307 312 308 302 296 297 293 296 289 289 289 290 292 293 293 291 291 292 293 294 296 297 297 297 297 296 295 293 291 290 289 288 287 287 289 290 289
298 299 299 302 305 304 302 301 303 300 300 294 298 294 295 293 291 293 294 292 290 290 291 293 293 294 294 293 293 293 293 290 288 286 286 287 287 289 291 293 293 293 293 291
296 297 298 300 303 302 300 303 297 297 296 296 292 291 288 287 287 290 290 290 290 291 292 292 292 292 291 289 287 286 284 283 284 285 288 291 293 294 294 295 295 295 295 295
298 299 300 301 302 300 300 303 303 301 301 298 294 293 290 289 292 292 292 293 293 294 293 292 291 289 287 284 282 282 283 285 289 293 295 295 295 296 297 298 298 298 297 296
297 297 296 297 297 298 300 299 300 300 299 296 297 295 294 296 296 295 296 293 293 291 290 288 286 285 284 284 286 288 291 295 297 297 296 296 297 298 300 301 301 299 298 295
297 295 294 293 292 293 294 298 299 298 297 298 297 295 294 293 291 290 289 288 286 285 285 285 285 289 291 293 296 298 299 297 295 296 298 300 302 303 303 302 301 298 296 294
295 295 293 295 297 297 300 300 297 295 294 295 292 290 289 289 288 290 289 289 290 291 293 294 296 300 300 298 298 298 296 298 299 302 303 304 304 304 304 302 299 297 295 293
295 296 297 299 299 301 300 297 298 295 295 293 290 290 291 290 291 293 296 298 297 296 298 298 298 300 298 297 297 299 301 302 304 304 304 305 304 303 301 300 298 297 297 298
297 296 298 298 296 293 295 292 288 288 286 288 290 291 292 296 301 302 300 297 295 294 291 293 295 296 295 297 299 301 302 302 303 304 306 306 305 302 301 300 299 298 299 296
293 292 291 287 286 286 285 284 284 286 290 293 296 299 302 301 295 291 291 292 291 290 289 292 293 294 298 299 300 301 302 302 303 305 306 305 303 302 301 301 301 299 298 299
291 288 286 287 289 287 289 290 291 291 294 297 297 296 290 282 282 286 288 289 289 292 292 293 297 301 303 303 302 301 302 305 306 305 305 304 304 302 301 301 302 301 297 301
285 285 286 288 287 288 290 291 294 296 297 296 291 287 285 287 287 287 287 289 294 298 300 304 307 308 306 305 307 307 306 307 308 308 307 305 303 300 298 297 300 301 301 299
286 285 285 287 289 291 293 295 296 297 297 295 294 294 292 290 293 296 297 298 303 308 311 312 314 312 311 311 311 310 311 311 311 310 308 306 305 303 302 300 301 299 300 298